RS32S (SXC3-212 MONITO*) (53374 NORAD) Tracking and Keplerian Element Data

This shows tracking and keplerian element data for the satellite.

Feedback or suggestion? Click here.




ElementValue
Catalog53374
NameRS32S (SXC3-212 MONITO*)
Epoch Orbit1581
Epoch Day325.0279444
Epoch Year2022
RAAN225.8188
Inclination97.4268
Eccentricity0.0002804
Argument of Perigee106.9584
Mean Anonmoly20.9093
Mean Motion15.27038916
Decay Rate0.00010979
L11 53374U 22096E 22325.02794440 .00010979 00000+0 41636-3 0 9993
L22 53374 97.4268 225.8188 0002804 106.9584 20.9093 15.27038916 15811



Live tracking and technical data element details for RS32S (SXC3-212 MONITO*) (NORAD 53374). RS32S (SXC3-212 MONITO*) can be tracked NOW for your location showing map with azimuth and elevation plus other details from your city location.







IsCatalogInMostPopularTable: catalog: 53374, numindb: 4
Update: records affected: 1



GetName: 53374 RS32S (SXC3-212 MONITO*)

Hit Count: updated at: Tue, 29 Nov 2022 01:12:38 GMT